Location: Brabourne
(51.1333°N, 1.0000°E)
Time: 08:23:40
(UTC+00:00)

SL-19 R/B - Pass Details

Date: 20 June 2021
Orbit: 796 x 1009 km, 99.4° (Epoch: 02 August)

Event Time Altitude Azimuth Distance (km) Brightness Sun altitude
Rises 02:23:32 0° 15° (NNE) 3,319 8.9 -8.8°
Reaches altitude 10° 02:25:51 10° 13° (NNE) 2,392 7.9 -8.6°
Maximum altitude 02:31:05 75° 290° (WNW) 853 4.2 -8.1°
Drops below altitude 10° 02:36:29 10° 206° (SSW) 2,459 6.0 -7.7°
Enters shadow 02:36:45 - 206° (SSW) 2,568 6.1 -7.6°
